Change the Weather History Date:

Friday, May 3, 2013

  Actual Average Record
Temperature  
Mean Temperature 56 °F 72 °F  
Max Temperature 68 °F 83 °F 92 °F (1943)
Min Temperature 44 °F 62 °F 44 °F (2013)
Degree Days  
Heating Degree Days 9 0  
Month to date heating degree days 9 0  
Since 1 July heating degree days 1530 1553  
Cooling Degree Days 0 8  
Month to date cooling degree days 15 23  
Year to date cooling degree days 172 254  
Growing Degree Days 6 (Base 50)    
Moisture  
Dew Point 53 °F    
Average Humidity 83    
Maximum Humidity 100    
Minimum Humidity 66    
Precipitation  
Precipitation 0.01 in 0.14 in 2.65 in (1978)
Month to date precipitation 0.08 0.42  
Year to date precipitation 31.23 20.05  
Snow  
Snow 0.00 in - - ()
Month to date snowfall 0.0  
Since 1 July snowfall 0.0  
Snow Depth 0.00 in    
Sea Level Pressure  
Sea Level Pressure 29.98 in    
Wind  
Wind Speed 8 mph (NW)    
Max Wind Speed 17 mph    
Max Gust Speed 24 mph    
Visibility 10 miles    
Events Rain    
T = Trace of Precipitation, MM = Missing Value Source: NWS Daily Summary

Daily Weather History Graph

Daily Weather History Graph

Search for Another Location

Airport or City:

Trip Planner

Search our weather history database for the weather conditions in past years. The results will help you decide how hot, cold, wet, or windy it might be!

Date:

Astronomy

May. 03, 2013 Rise Set
Actual Time 6:18 AM CDT 7:44 PM CDT
Civil Twilight 5:53 AM CDT 8:10 PM CDT
Nautical Twilight 5:22 AM CDT 8:40 PM CDT
Astronomical Twilight 4:50 AM CDT 9:12 PM CDT
Moon 2:17 AM CDT (5/3) 2:03 PM CDT (5/3)
Length of Visible Light 14h 16m
Length of Day
13h 25m
Last Quarter, 37% of the Moon is Illuminated
May 3
Last Quarter
May 9
New
May 17
First Quarter
May 24
Full
May 31
Last Quarter

Hourly Weather History & Observations

Time (CDT) Temp. Dew Point Humidity Pressure Visibility Wind Dir Wind Speed Gust Speed Precip Events Conditions
12:30 AM 66.2 °F 66.2 °F 100% 29.95 in 10.0 mi Calm Calm - N/A   Overcast
12:41 AM 68.0 °F 66.2 °F 94% 29.95 in 10.0 mi Calm Calm - N/A   Overcast
12:53 AM 66.9 °F 66.0 °F 97% 29.94 in 10.0 mi Calm Calm - N/A   Overcast
1:14 AM 66.2 °F 66.2 °F 100% 29.94 in 10.0 mi Variable 3.5 mph - N/A   Overcast
1:45 AM 66.2 °F 66.2 °F 100% 29.94 in 10.0 mi Calm Calm - N/A   Overcast
1:53 AM 66.9 °F 66.0 °F 97% 29.93 in 10.0 mi Calm Calm - N/A   Overcast
2:09 AM 66.2 °F 66.2 °F 100% 29.92 in 10.0 mi Calm Calm - N/A   Overcast
2:32 AM 66.2 °F 66.2 °F 100% 29.92 in 10.0 mi Calm Calm - N/A   Overcast
2:53 AM 66.2 °F 64.4 °F 94% 29.92 in 10.0 mi WNW 3.5 mph - N/A   Overcast
3:08 AM 62.6 °F 60.8 °F 94% 29.92 in 10.0 mi WNW 13.8 mph - N/A   Overcast
3:53 AM 60.1 °F 59.0 °F 96% 29.93 in 10.0 mi NW 10.4 mph 18.4 mph N/A   Overcast
4:13 AM 60.8 °F 57.2 °F 88% 29.93 in 10.0 mi NW 15.0 mph 24.2 mph N/A   Overcast
4:39 AM 59.0 °F 55.4 °F 88% 29.93 in 10.0 mi NW 10.4 mph - 0.00 in   Overcast
4:53 AM 57.9 °F 55.9 °F 93% 29.93 in 10.0 mi WNW 11.5 mph - 0.00 in   Overcast
5:53 AM 57.0 °F 55.9 °F 96% 29.95 in 9.0 mi WNW 10.4 mph - 0.00 in Rain Light Rain
6:53 AM 55.0 °F 53.1 °F 93% 29.97 in 10.0 mi WNW 12.7 mph - 0.00 in   Overcast
7:53 AM 53.1 °F 52.0 °F 96% 29.99 in 10.0 mi WNW 13.8 mph 20.7 mph 0.01 in   Overcast
8:53 AM 54.0 °F 51.1 °F 90% 30.00 in 10.0 mi NW 10.4 mph - N/A   Overcast
9:53 AM 53.1 °F 51.1 °F 93% 30.01 in 10.0 mi WNW 9.2 mph - N/A   Overcast
10:42 AM 55.4 °F 48.2 °F 77% 30.00 in 10.0 mi NNW 9.2 mph 17.3 mph N/A   Overcast
10:53 AM 55.0 °F 50.0 °F 83% 30.01 in 10.0 mi Variable 6.9 mph - N/A   Overcast
11:42 AM 53.6 °F 50.0 °F 88% 30.00 in 10.0 mi NW 6.9 mph 19.6 mph N/A   Overcast
11:53 AM 54.0 °F 50.0 °F 86% 30.00 in 10.0 mi WNW 9.2 mph - N/A   Overcast
12:53 PM 55.9 °F 48.9 °F 77% 30.00 in 10.0 mi NW 11.5 mph 19.6 mph N/A   Overcast
1:53 PM 53.1 °F 48.0 °F 83% 30.01 in 10.0 mi NW 11.5 mph 20.7 mph N/A   Overcast
2:00 PM 51.8 °F 48.2 °F 88% 30.01 in 9.0 mi NW 12.7 mph 21.9 mph N/A   Overcast
2:44 PM 57.2 °F 48.2 °F 72% 30.00 in 10.0 mi NNW 11.5 mph 19.6 mph N/A   Overcast
2:53 PM 55.9 °F 46.9 °F 72% 29.99 in 10.0 mi NW 8.1 mph - N/A   Overcast
3:53 PM 54.0 °F 46.9 °F 77% 29.99 in 10.0 mi WNW 11.5 mph 21.9 mph N/A   Overcast
4:53 PM 53.1 °F 44.1 °F 71% 29.99 in 10.0 mi NNW 12.7 mph 21.9 mph N/A   Overcast
5:53 PM 53.1 °F 43.0 °F 69% 29.99 in 10.0 mi NNW 13.8 mph 20.7 mph N/A   Overcast
6:53 PM 51.1 °F 42.1 °F 71% 30.01 in 10.0 mi NNW 9.2 mph 18.4 mph N/A   Scattered Clouds
7:53 PM 50.0 °F 42.1 °F 74% 30.02 in 10.0 mi Variable 4.6 mph - N/A   Scattered Clouds
8:53 PM 48.0 °F 43.0 °F 83% 30.04 in 10.0 mi Calm Calm - N/A   Clear
9:53 PM 46.9 °F 43.0 °F 86% 30.06 in 10.0 mi Calm Calm - N/A   Clear
10:53 PM 45.0 °F 43.0 °F 93% 30.06 in 10.0 mi Calm Calm - N/A   Clear
11:53 PM 44.1 °F 42.1 °F 93% 30.05 in 10.0 mi Calm Calm - N/A   Clear